Location: Oroua River
(40.4333°S, 175.4333°E)
Time: 09:29:09
(UTC+00:00)

MSX - Pass Details

Date: 02 October 2023
Orbit: 895 x 904 km, 99.0° (Epoch: 06 December)

Event Time Altitude Azimuth Distance (km) Brightness Sun altitude
Exits shadow 13:01:54 18° 179° (S) 2,120 6.2 -44.2°
Drops below altitude 10° 13:03:17 10° 184° (S) 2,619 6.8 -44.2°
Sets 13:05:46 0° 188° (S) 3,568 7.6 -44.0°
